Time,TemperatureF,DewpointF,PressureIn,WindDirection,WindDirectionDegrees,WindSpeedMPH,WindSpeedGustMPH,Humidity,HourlyPrecipIn,Conditions,Clouds,dailyrainin,SoftwareType,DateUTC
2013-03-07 00:01:00,52.0,33.0,29.85,NNW,336,0.0,1.0,48,0.00,,,0.00,,2013-03-07 07:01:00,
2013-03-07 00:11:00,52.0,33.0,29.85,NNW,336,0.0,1.0,48,0.00,,,0.00,,2013-03-07 07:11:00,
2013-03-07 00:21:00,52.0,33.0,29.86,NNW,336,0.0,1.0,48,0.00,,,0.00,,2013-03-07 07:21:00,
2013-03-07 00:31:00,53.0,33.0,29.86,NNW,336,1.0,2.0,46,0.00,,,0.00,,2013-03-07 07:31:00,
2013-03-07 00:41:00,53.0,33.0,29.86,NNW,336,1.0,2.0,46,0.00,,,0.00,,2013-03-07 07:41:00,
2013-03-07 00:52:00,52.0,33.0,29.86,NNW,336,1.0,3.0,48,0.00,,,0.00,,2013-03-07 07:52:00,
2013-03-07 01:01:00,52.0,32.0,29.86,NNW,336,1.0,3.0,47,0.00,,,0.00,,2013-03-07 08:01:00,
2013-03-07 01:11:00,52.0,32.0,29.86,NNW,336,1.0,3.0,47,0.00,,,0.00,,2013-03-07 08:11:00,
2013-03-07 01:22:00,53.0,32.0,29.86,NNW,336,1.0,2.0,45,0.00,,,0.00,,2013-03-07 08:22:00,
2013-03-07 01:31:00,52.0,32.0,29.86,NNW,336,0.0,2.0,47,0.00,,,0.00,,2013-03-07 08:31:00,
2013-03-07 01:43:00,52.0,32.0,29.86,NNW,336,0.0,2.0,47,0.00,,,0.00,,2013-03-07 08:43:00,
2013-03-07 01:53:00,51.0,32.0,29.86,NNW,336,0.0,1.0,48,0.00,,,0.00,,2013-03-07 08:53:00,
2013-03-07 02:01:00,50.0,33.0,29.85,NNW,336,0.0,0.0,51,0.00,,,0.00,,2013-03-07 09:01:00,
2013-03-07 02:11:00,50.0,33.0,29.85,NNW,336,0.0,0.0,51,0.00,,,0.00,,2013-03-07 09:11:00,
2013-03-07 02:21:00,49.0,33.0,29.85,NNW,336,0.0,0.0,53,0.00,,,0.00,,2013-03-07 09:21:00,
2013-03-07 02:31:00,49.0,33.0,29.85,NNW,336,0.0,1.0,53,0.00,,,0.00,,2013-03-07 09:31:00,
2013-03-07 02:41:00,49.0,33.0,29.85,NNW,336,0.0,1.0,53,0.00,,,0.00,,2013-03-07 09:41:00,
2013-03-07 02:52:00,49.0,33.0,29.85,NNW,336,1.0,2.0,53,0.00,,,0.00,,2013-03-07 09:52:00,
2013-03-07 03:11:00,49.0,33.0,29.85,NNW,336,0.0,0.0,54,0.00,,,0.00,,2013-03-07 10:11:00,
2013-03-07 03:31:00,50.0,33.0,29.84,NNW,336,1.0,3.0,51,0.00,,,0.00,,2013-03-07 10:31:00,
2013-03-07 03:41:00,50.0,33.0,29.84,NNW,336,1.0,3.0,51,0.00,,,0.00,,2013-03-07 10:41:00,
2013-03-07 03:52:00,50.0,32.0,29.84,NNW,336,1.0,2.0,49,0.00,,,0.00,,2013-03-07 10:52:00,
2013-03-07 04:01:00,48.0,31.0,29.84,NNW,336,0.0,0.0,52,0.00,,,0.00,,2013-03-07 11:01:00,
2013-03-07 04:11:00,48.0,31.0,29.84,NNW,336,0.0,0.0,52,0.00,,,0.00,,2013-03-07 11:11:00,
2013-03-07 04:22:00,48.0,32.0,29.84,NNW,336,0.0,2.0,53,0.00,,,0.00,,2013-03-07 11:22:00,
2013-03-07 04:32:00,48.0,32.0,29.85,NW,321,0.0,0.0,54,0.00,,,0.00,,2013-03-07 11:32:00,
2013-03-07 04:41:00,48.0,32.0,29.85,NW,321,0.0,0.0,54,0.00,,,0.00,,2013-03-07 11:41:00,
2013-03-07 04:53:00,48.0,32.0,29.85,WSW,240,0.0,2.0,54,0.00,,,0.00,,2013-03-07 11:53:00,
2013-03-07 05:01:00,46.0,31.0,29.85,WSW,242,1.0,2.0,55,0.00,,,0.00,,2013-03-07 12:01:00,
2013-03-07 05:11:00,46.0,31.0,29.85,WSW,242,1.0,2.0,55,0.00,,,0.00,,2013-03-07 12:11:00,
2013-03-07 05:21:00,46.0,31.0,29.86,WSW,242,1.0,1.0,56,0.00,,,0.00,,2013-03-07 12:21:00,
2013-03-07 05:32:00,46.0,31.0,29.86,WSW,242,0.0,2.0,56,0.00,,,0.00,,2013-03-07 12:32:00,
2013-03-07 05:42:00,46.0,31.0,29.86,WSW,242,0.0,2.0,56,0.00,,,0.00,,2013-03-07 12:42:00,
2013-03-07 05:52:00,45.0,30.0,29.87,WSW,256,1.0,4.0,56,0.00,,,0.00,,2013-03-07 12:52:00,
2013-03-07 06:01:00,47.0,30.0,29.87,NNW,343,2.0,4.0,51,0.00,,,0.00,,2013-03-07 13:01:00,
2013-03-07 06:11:00,47.0,30.0,29.87,NNW,343,2.0,4.0,51,0.00,,,0.00,,2013-03-07 13:11:00,
2013-03-07 06:22:00,47.0,31.0,29.87,NNW,343,0.0,4.0,53,0.00,,,0.00,,2013-03-07 13:22:00,
2013-03-07 06:31:00,46.0,31.0,29.87,NE,43,0.0,1.0,56,0.00,,,0.00,,2013-03-07 13:31:00,
2013-03-07 06:41:00,46.0,31.0,29.87,NE,43,0.0,1.0,56,0.00,,,0.00,,2013-03-07 13:41:00,
2013-03-07 06:53:00,45.0,30.0,29.87,NE,40,1.0,3.0,56,0.00,,,0.00,,2013-03-07 13:53:00,
2013-03-07 07:01:00,45.0,30.0,29.88,NE,41,0.0,1.0,56,0.00,,,0.00,,2013-03-07 14:01:00,
2013-03-07 07:11:00,45.0,30.0,29.88,NE,41,0.0,1.0,56,0.00,,,0.00,,2013-03-07 14:11:00,
2013-03-07 07:21:00,45.0,30.0,29.88,NE,41,0.0,1.0,56,0.00,,,0.00,,2013-03-07 14:21:00,
2013-03-07 07:31:00,47.0,31.0,29.89,NE,41,0.0,1.0,54,0.00,,,0.00,,2013-03-07 14:31:00,
2013-03-07 07:41:00,47.0,31.0,29.89,NE,41,0.0,1.0,54,0.00,,,0.00,,2013-03-07 14:41:00,
2013-03-07 07:53:00,50.0,31.0,29.89,NE,41,0.0,0.0,48,0.00,,,0.00,,2013-03-07 14:53:00,
2013-03-07 08:01:00,57.0,32.0,29.90,NE,41,0.0,0.0,38,0.00,,,0.00,,2013-03-07 15:01:00,
2013-03-07 08:21:00,59.0,31.0,29.91,NE,41,0.0,0.0,34,0.00,,,0.00,,2013-03-07 15:21:00,
2013-03-07 08:31:00,60.0,31.0,29.91,NE,41,0.0,0.0,33,0.00,,,0.00,,2013-03-07 15:31:00,
2013-03-07 08:41:00,60.0,31.0,29.91,NE,41,0.0,0.0,33,0.00,,,0.00,,2013-03-07 15:41:00,
2013-03-07 08:52:00,62.0,30.0,29.91,NE,41,0.0,1.0,30,0.00,,,0.00,,2013-03-07 15:52:00,
2013-03-07 09:01:00,63.0,31.0,29.91,NE,41,0.0,1.0,30,0.00,,,0.00,,2013-03-07 16:01:00,
2013-03-07 09:11:00,63.0,31.0,29.91,NE,41,0.0,1.0,30,0.00,,,0.00,,2013-03-07 16:11:00,
2013-03-07 09:21:00,64.0,30.0,29.90,NE,41,0.0,2.0,28,0.00,,,0.00,,2013-03-07 16:21:00,
2013-03-07 09:31:00,65.0,30.0,29.91,SE,145,0.0,2.0,27,0.00,,,0.00,,2013-03-07 16:31:00,
2013-03-07 09:41:00,65.0,30.0,29.91,SE,145,0.0,2.0,27,0.00,,,0.00,,2013-03-07 16:41:00,
2013-03-07 09:52:00,66.0,31.0,29.91,SSE,151,0.0,2.0,27,0.00,,,0.00,,2013-03-07 16:52:00,
2013-03-07 10:01:00,68.0,31.0,29.91,West,266,1.0,4.0,25,0.00,,,0.00,,2013-03-07 17:01:00,
2013-03-07 10:11:00,68.0,31.0,29.91,West,266,1.0,4.0,25,0.00,,,0.00,,2013-03-07 17:11:00,
2013-03-07 10:21:00,69.0,31.0,29.91,WNW,282,1.0,5.0,24,0.00,,,0.00,,2013-03-07 17:21:00,
2013-03-07 10:31:00,70.0,32.0,29.91,West,274,2.0,7.0,24,0.00,,,0.00,,2013-03-07 17:31:00,
2013-03-07 10:42:00,70.0,32.0,29.91,West,274,2.0,7.0,24,0.00,,,0.00,,2013-03-07 17:42:00,
2013-03-07 10:53:00,70.0,30.0,29.90,WNW,284,1.0,9.0,23,0.00,,,0.00,,2013-03-07 17:53:00,
2013-03-07 11:01:00,71.0,30.0,29.90,North,1,3.0,8.0,22,0.00,,,0.00,,2013-03-07 18:01:00,
2013-03-07 11:11:00,71.0,30.0,29.90,North,1,3.0,8.0,22,0.00,,,0.00,,2013-03-07 18:11:00,
2013-03-07 11:21:00,72.0,29.0,29.89,West,262,2.0,8.0,20,0.00,,,0.00,,2013-03-07 18:21:00,
2013-03-07 11:31:00,73.0,28.0,29.89,South,191,2.0,6.0,19,0.00,,,0.00,,2013-03-07 18:31:00,
2013-03-07 11:41:00,73.0,28.0,29.89,South,191,2.0,6.0,19,0.00,,,0.00,,2013-03-07 18:41:00,
2013-03-07 11:52:00,74.0,28.0,29.89,WSW,256,2.0,7.0,18,0.00,,,0.00,,2013-03-07 18:52:00,
2013-03-07 12:01:00,74.0,26.0,29.89,West,279,3.0,10.0,17,0.00,,,0.00,,2013-03-07 19:01:00,
2013-03-07 12:11:00,74.0,25.0,29.89,SSW,204,3.0,8.0,16,0.00,,,0.00,,2013-03-07 19:11:00,
2013-03-07 12:22:00,74.0,25.0,29.89,SSW,204,3.0,8.0,16,0.00,,,0.00,,2013-03-07 19:22:00,
2013-03-07 12:32:00,75.0,26.0,29.88,SW,220,2.0,11.0,16,0.00,,,0.00,,2013-03-07 19:32:00,
2013-03-07 12:42:00,75.0,26.0,29.88,SW,220,2.0,11.0,16,0.00,,,0.00,,2013-03-07 19:42:00,
2013-03-07 12:52:00,75.0,24.0,29.87,WNW,299,3.0,11.0,15,0.00,,,0.00,,2013-03-07 19:52:00,
2013-03-07 13:21:00,77.0,26.0,29.85,South,178,4.0,10.0,15,0.00,,,0.00,,2013-03-07 20:21:00,
2013-03-07 13:31:00,78.0,21.0,29.83,WSW,254,3.0,8.0,12,0.00,,,0.00,,2013-03-07 20:31:00,
2013-03-07 13:41:00,78.0,21.0,29.83,WSW,254,3.0,8.0,12,0.00,,,0.00,,2013-03-07 20:41:00,
2013-03-07 13:52:00,78.0,23.0,29.82,WNW,290,5.0,10.0,13,0.00,,,0.00,,2013-03-07 20:52:00,
2013-03-07 14:01:00,78.0,15.0,29.81,WNW,288,7.0,14.0,9,0.00,,,0.00,,2013-03-07 21:01:00,
2013-03-07 14:11:00,78.0,15.0,29.81,WNW,288,7.0,14.0,9,0.00,,,0.00,,2013-03-07 21:11:00,
2013-03-07 14:21:00,80.0,16.0,29.82,West,263,8.0,18.0,9,0.00,,,0.00,,2013-03-07 21:21:00,
2013-03-07 14:31:00,80.0,19.0,29.81,SW,217,8.0,20.0,10,0.00,,,0.00,,2013-03-07 21:31:00,
2013-03-07 14:41:00,80.0,19.0,29.81,SW,217,8.0,20.0,10,0.00,,,0.00,,2013-03-07 21:41:00,
2013-03-07 14:52:00,79.0,15.0,29.81,WSW,252,9.0,20.0,9,0.00,,,0.00,,2013-03-07 21:52:00,
2013-03-07 15:01:00,80.0,19.0,29.81,SSW,201,7.0,15.0,10,0.00,,,0.00,,2013-03-07 22:01:00,
2013-03-07 15:11:00,80.0,19.0,29.81,SSW,201,7.0,15.0,10,0.00,,,0.00,,2013-03-07 22:11:00,
2013-03-07 15:21:00,80.0,19.0,29.80,WSW,238,7.0,20.0,10,0.00,,,0.00,,2013-03-07 22:21:00,
2013-03-07 15:31:00,80.0,19.0,29.80,SW,228,9.0,17.0,10,0.00,,,0.00,,2013-03-07 22:31:00,
2013-03-07 15:41:00,80.0,19.0,29.80,SW,228,9.0,17.0,10,0.00,,,0.00,,2013-03-07 22:41:00,
2013-03-07 16:01:00,78.0,17.0,29.80,WSW,252,8.0,18.0,10,0.00,,,0.00,,2013-03-07 23:01:00,
2013-03-07 16:11:00,78.0,17.0,29.80,WSW,252,8.0,18.0,10,0.00,,,0.00,,2013-03-07 23:11:00,
2013-03-07 16:21:00,77.0,18.0,29.80,SW,222,9.0,22.0,11,0.00,,,0.00,,2013-03-07 23:21:00,
2013-03-07 16:31:00,77.0,18.0,29.80,WSW,256,9.0,22.0,11,0.00,,,0.00,,2013-03-07 23:31:00,
2013-03-07 16:41:00,77.0,18.0,29.80,WSW,256,9.0,22.0,11,0.00,,,0.00,,2013-03-07 23:41:00,
2013-03-07 16:53:00,77.0,20.0,29.80,West,280,7.0,17.0,12,0.00,,,0.00,,2013-03-07 23:53:00,
2013-03-07 17:22:00,76.0,23.0,29.80,WNW,284,8.0,19.0,14,0.00,,,0.00,,2013-03-08 00:22:00,
2013-03-07 17:32:00,75.0,24.0,29.81,WSW,243,8.0,15.0,15,0.00,,,0.00,,2013-03-08 00:32:00,
2013-03-07 17:42:00,75.0,24.0,29.81,WSW,243,8.0,15.0,15,0.00,,,0.00,,2013-03-08 00:42:00,
2013-03-07 17:53:00,75.0,24.0,29.81,WSW,247,9.0,17.0,15,0.00,,,0.00,,2013-03-08 00:53:00,
2013-03-07 18:01:00,74.0,23.0,29.81,West,278,7.0,16.0,15,0.00,,,0.00,,2013-03-08 01:01:00,
2013-03-07 18:11:00,74.0,23.0,29.81,West,278,7.0,16.0,15,0.00,,,0.00,,2013-03-08 01:11:00,
2013-03-07 18:21:00,73.0,24.0,29.81,West,267,7.0,15.0,16,0.00,,,0.00,,2013-03-08 01:21:00,
2013-03-07 18:31:00,72.0,23.0,29.81,WSW,245,7.0,12.0,16,0.00,,,0.00,,2013-03-08 01:31:00,
2013-03-07 18:41:00,72.0,23.0,29.81,WSW,245,7.0,12.0,16,0.00,,,0.00,,2013-03-08 01:41:00,
2013-03-07 18:52:00,71.0,24.0,29.82,West,267,6.0,16.0,17,0.00,,,0.00,,2013-03-08 01:52:00,
2013-03-07 19:01:00,70.0,25.0,29.83,West,264,6.0,16.0,18,0.00,,,0.00,,2013-03-08 02:01:00,
2013-03-07 19:11:00,69.0,24.0,29.83,WSW,249,4.0,8.0,18,0.00,,,0.00,,2013-03-08 02:11:00,
2013-03-07 19:21:00,69.0,24.0,29.83,WSW,249,4.0,8.0,18,0.00,,,0.00,,2013-03-08 02:21:00,
2013-03-07 19:31:00,69.0,25.0,29.83,West,265,5.0,10.0,19,0.00,,,0.00,,2013-03-08 02:31:00,
2013-03-07 19:41:00,69.0,25.0,29.83,West,265,5.0,10.0,19,0.00,,,0.00,,2013-03-08 02:41:00,
2013-03-07 19:52:00,68.0,24.0,29.83,West,265,4.0,8.0,19,0.00,,,0.00,,2013-03-08 02:52:00,
2013-03-07 20:01:00,67.0,25.0,29.84,WNW,282,3.0,6.0,20,0.00,,,0.00,,2013-03-08 03:01:00,
2013-03-07 20:11:00,67.0,25.0,29.84,WNW,282,3.0,6.0,20,0.00,,,0.00,,2013-03-08 03:11:00,
2013-03-07 20:21:00,66.0,25.0,29.84,West,281,2.0,5.0,21,0.00,,,0.00,,2013-03-08 03:21:00,
2013-03-07 20:31:00,64.0,25.0,29.84,NW,326,1.0,5.0,23,0.00,,,0.00,,2013-03-08 03:31:00,
2013-03-07 20:41:00,64.0,25.0,29.84,NW,326,1.0,5.0,23,0.00,,,0.00,,2013-03-08 03:41:00,
2013-03-07 20:52:00,64.0,25.0,29.84,NW,310,1.0,5.0,23,0.00,,,0.00,,2013-03-08 03:52:00,
2013-03-07 21:01:00,64.0,25.0,29.84,NW,311,0.0,2.0,23,0.00,,,0.00,,2013-03-08 04:01:00,
2013-03-07 21:11:00,64.0,25.0,29.84,NW,311,0.0,2.0,23,0.00,,,0.00,,2013-03-08 04:11:00,
2013-03-07 21:21:00,62.0,27.0,29.85,NW,311,0.0,0.0,26,0.00,,,0.00,,2013-03-08 04:21:00,
2013-03-07 21:31:00,60.0,28.0,29.85,NW,311,0.0,0.0,29,0.00,,,0.00,,2013-03-08 04:31:00,
2013-03-07 21:42:00,60.0,28.0,29.85,NW,311,0.0,0.0,29,0.00,,,0.00,,2013-03-08 04:42:00,
2013-03-07 21:52:00,60.0,28.0,29.85,NW,311,0.0,0.0,29,0.00,,,0.00,,2013-03-08 04:52:00,
2013-03-07 22:01:00,60.0,28.0,29.85,NW,311,0.0,0.0,30,0.00,,,0.00,,2013-03-08 05:01:00,
2013-03-07 22:11:00,60.0,28.0,29.85,NW,311,0.0,0.0,30,0.00,,,0.00,,2013-03-08 05:11:00,
2013-03-07 22:22:00,60.0,28.0,29.85,NW,311,0.0,0.0,30,0.00,,,0.00,,2013-03-08 05:22:00,
2013-03-07 22:31:00,60.0,28.0,29.85,NW,311,0.0,1.0,30,0.00,,,0.00,,2013-03-08 05:31:00,
2013-03-07 22:42:00,60.0,28.0,29.85,NW,311,0.0,1.0,30,0.00,,,0.00,,2013-03-08 05:42:00,
2013-03-07 22:52:00,60.0,29.0,29.85,NW,311,0.0,0.0,31,0.00,,,0.00,,2013-03-08 05:52:00,
2013-03-07 23:01:00,59.0,29.0,29.85,NW,311,0.0,0.0,32,0.00,,,0.00,,2013-03-08 06:01:00,
2013-03-07 23:11:00,59.0,29.0,29.85,NW,311,0.0,0.0,32,0.00,,,0.00,,2013-03-08 06:11:00,
2013-03-07 23:21:00,59.0,30.0,29.85,NW,311,0.0,0.0,33,0.00,,,0.00,,2013-03-08 06:21:00,
2013-03-07 23:31:00,60.0,29.0,29.85,NW,311,0.0,0.0,31,0.00,,,0.00,,2013-03-08 06:31:00,
2013-03-07 23:41:00,60.0,29.0,29.85,NW,311,0.0,0.0,31,0.00,,,0.00,,2013-03-08 06:41:00,
2013-03-07 23:52:00,60.0,29.0,29.84,NW,311,0.0,0.0,31,0.00,,,0.00,,2013-03-08 06:52:00,